Hayfield, Middle Canyon, Santa Catalina Island Weather observations

Data are for 10 minute period ending at time listed.
 Day   Time   Solar   Ave.   Ave.  Ave.  Vector    Max.   Stn.    Total
  of    of     Rad.   Air    Rel.  Wind   Wind     Wind   Baro.  Precip. 
Year   Day            Temp.  Hum.  Speed  Dir.     Gust   Pres.          
2014   (PST)   W/m2    F      %     mph   deg.      mph    mb.     in.   
-------------------------------------------------------------------------
 261    8:30   47.4    63  100.0     4    295.2    10.0    999.0   0.00
 261    8:40   46.8    63  100.0     4    292.7    12.2    999.0   0.00
 261    8:50   57.5    63  100.0     5    297.9     9.4    999.0   0.00
 261    9:00   55.2    62  100.0     5    299.9     9.4    999.0   0.00
 261    9:10   62.6    62  100.0     4    302.1     9.4    999.0   0.00
 261    9:20   63.5    62  100.0     4    293.6     7.7    999.0   0.00
 261    9:30   65.2    62  100.0     4    292.6     8.3    999.0   0.00
 261    9:40   79.3    62  100.0     3    292.2     8.3    999.0   0.00
 261    9:50   98.2    62  100.0     3    296.1     6.6    999.0   0.00
 261   10:00   88.3    62  100.0     4    306.3     6.6    999.0   0.00
 261   10:10   86.5    62  100.0     3    284.0     6.6    999.0   0.00
 261   10:20  102.0    62  100.0     3    299.2     7.2    999.0   0.00
 261   10:30   92.7    62  100.0     3    297.7     7.2    999.0   0.00
 261   10:40   94.6    62  100.0     4    293.8     8.3    999.0   0.00
 261   10:50  101.8    62  100.0     5    292.1     8.3    999.0   0.00
 261   11:00   94.2    62  100.0     4    301.0     9.4    999.0   0.00
 261   11:10  123.2    62  100.0     5    297.1    10.0    999.0   0.00
 261   11:20  148.0    62  100.0     5    298.4     8.8    999.0   0.00
 261   11:30  135.1    63  100.0     5    295.5    10.0    999.0   0.00
 261   11:40  138.1    64  100.0     5    297.7    11.1    999.0   0.00
 261   11:50  163.5    64  100.0     6    292.1    10.5    999.0   0.00
 261   12:00  203.6    65   99.4     5    286.6    10.5    999.0   0.00
 261   12:10  379.3    67   97.3     6    270.9    10.0    999.0   0.00
 261   12:20  446.2    70   93.0     5    295.9    11.1    999.0   0.00
 261   12:30  333.5    70   91.4     5    304.5    11.1    999.0   0.00
 261   12:40  209.6    70   92.0     5    298.4    10.5    999.0   0.00
 261   12:50  200.8    69   92.9     4    299.8    10.0    999.0   0.00
 261   13:00  262.0    70   92.1     4    300.4     9.4    999.0   0.00
 261   13:10  213.5    70   90.5     5    291.2    10.0    999.0   0.00
 261   13:20  204.2    69   91.7     6    306.9    11.6    999.0   0.00
 261   13:30  252.7    69   91.6     6    287.0    13.9    999.0   0.00
 261   13:40  229.0    69   91.2     6    296.5    11.1    999.0   0.00
 261   13:50  302.1    69   91.8     5    288.1    10.5    999.0   0.00
 261   14:00  278.7    70   90.3     5    281.7    10.5    999.0   0.00
 261   14:10  242.4    70   91.0     6    298.0    10.0    999.0   0.00
 261   14:20  323.7    70   91.1     5    283.0     8.8    999.0   0.00
 261   14:30  467.5    71   88.7     6    286.5    11.6    999.0   0.00
 261   14:40  450.4    72   87.0     6    295.7    11.6    999.0   0.00
 261   14:50  487.5    73   85.6     6    280.2    10.0    999.0   0.00
 261   15:00  454.4    72   85.3     6    291.1    11.6    999.0   0.00
 261   15:10  435.0    71   87.3     7    293.7    14.4    999.0   0.00
 261   15:20  334.8    71   88.0     6    294.8    10.5    999.0   0.00
 261   15:30  229.7    70   90.5     6    296.8    11.6    999.0   0.00
 261   15:40  189.8    69   92.2     5    283.2    10.5    999.0   0.00
 261   15:50  188.4    69   92.3     5    281.3    11.1    999.0   0.00
 261   16:00  145.9    68   93.2     6    299.5    10.0    999.0   0.00
 261   16:10  124.8    68   93.8     5    300.1    10.5    999.0   0.00
 261   16:20  134.7    68   94.5     5    291.6     8.8    999.0   0.00
 261   16:30  163.8    68   94.3     5    287.1    10.0    999.0   0.00
 261   16:40  155.7    68   93.7     5    287.7    10.0    999.0   0.00
 261   16:50  104.6    67   93.8     5    315.4    10.5    999.0   0.00
 261   17:00  105.2    67   94.2     5    299.7     9.4    999.0   0.00
 261   17:10   78.5    67   94.8     4    308.5     7.7    999.0   0.00
 261   17:20   72.2    67   94.4     4    309.0    11.1    999.0   0.00
 261   17:30   53.1    66   95.0     5    299.2    10.0    999.0   0.00
 261   17:40   44.8    66   95.3     5    302.5    11.1    999.0   0.00
 261   17:50   33.4    66   95.8     5    301.7    11.1    999.0   0.00
 261   18:00   31.4    66   95.9     6    289.4    12.2    999.0   0.00
 261   18:10   31.7    66   96.2     5    291.7    10.0    999.0   0.00
 261   18:20   22.5    66   96.3     5    290.3     9.4    999.0   0.00
 261   18:30    9.5    65   96.5     6    295.1    10.0    999.0   0.00
 261   18:40    5.3    65   96.9     6    290.5    12.2    999.0   0.00
 261   18:50    2.6    65   97.1     7    296.1    11.6    999.0   0.00
 261   19:00    1.0    65   97.3     6    295.7    14.4    999.0   0.00
 261   19:10    0.2    65   97.7     7    291.3    11.6    999.0   0.00
 261   19:20    0.0    65   97.8     7    295.2    11.6    999.0   0.00
 261   19:30    0.0    65   97.9     7    293.6    13.9    999.0   0.00
 261   19:40    0.0    64   98.1     6    292.3    12.2    999.0   0.00
 261   19:50    0.0    64   98.4     7    293.0    11.1    999.0   0.00
 261   20:00    0.0    64   98.5     6    300.7    10.0    999.0   0.00
 261   20:10    0.0    64   98.7     8    293.8    13.9    999.0   0.00
 261   20:20    0.0    64   98.7     4    299.6     7.7    999.0   0.00
 261   20:30    0.0    64   98.6     5    297.1    13.3    999.0   0.00
 261   20:40    0.0    64   98.8     6    293.9    13.3    999.0   0.00
 261   20:50    0.0    64   99.1     5    291.8    10.5    999.0   0.00
 261   21:00    0.0    64   99.2     6    291.7    11.1    999.0   0.00
 261   21:10    0.0    64   99.3     4    300.9    10.0    999.0   0.00
 261   21:20    0.0    64   99.2     4    290.4     9.4    999.0   0.00
 261   21:30    0.0    64   99.4     5    293.1     8.8    999.0   0.00
 261   21:40    0.0    64   99.7     5    295.2    10.0    999.0   0.00
 261   21:50    0.0    64   99.7     4    297.0    10.5    999.0   0.00
 261   22:00    0.0    63   99.8     4    298.2    10.0    999.0   0.00
 261   22:10    0.0    63   99.7     4    284.5     9.4    999.0   0.00
 261   22:20    0.0    63   99.7     5    298.7    10.0    999.0   0.00
 261   22:30    0.0    63   99.6     4    298.3     7.7    999.0   0.00
 261   22:40    0.0    63   99.5     4    301.7     7.7    999.0   0.00
 261   22:50    0.0    63   99.6     4    301.1     7.7    999.0   0.00
 261   23:00    0.0    63   99.7     3    302.7     9.4    999.0   0.00
 261   23:10    0.0    63   99.8     4    294.7     9.4    999.0   0.00
 261   23:20    0.0    63   99.8     5    284.8    10.5    999.0   0.00
 261   23:30    0.0    63   99.6     4    293.4    10.0    999.0   0.00
 261   23:40    0.0    63   99.4     3    305.1     6.6    999.0   0.00
 261   23:50    0.0    63   99.0     2    336.3     7.2    999.0   0.00
 262    0:00    0.0    62   99.0     0      4.4     2.1    999.0   0.00
 262    0:10    0.0    62   99.0     0      8.3     1.6    999.0   0.00
 262    0:20    0.0    62   99.1     0      7.9     2.1    999.0   0.00
 262    0:30    0.0    62   99.3     0    303.5     2.7    999.0   0.00
 262    0:40    0.0    62   99.6     1    282.7     3.2    999.0   0.00
 262    0:50    0.0    62   99.6     1    292.2     3.8    999.0   0.00
 262    1:00    0.0    62   99.5     1    302.2     6.0    999.0   0.00
 262    1:10    0.0    62   99.2     3    295.0     6.6    999.0   0.00
 262    1:20    0.0    63   98.9     2    312.8     4.4    999.0   0.00
 262    1:30    0.0    63   98.6     2    293.1     4.9    999.0   0.00
 262    1:40    0.0    63   98.4     3    295.5     6.6    999.0   0.00
 262    1:50    0.0    63   98.0     3    304.2     6.0    999.0   0.00
 262    2:00    0.0    63   97.7     2    304.5     5.5    999.0   0.00
 262    2:10    0.0    63   97.6     2    296.5     6.0    999.0   0.00
 262    2:20    0.0    63   97.5     1    284.8     3.8    999.0   0.00
 262    2:30    0.0    63   97.4     2    288.5     6.0    999.0   0.00
 262    2:40    0.0    63   97.2     2    286.6     7.7    999.0   0.00
 262    2:50    0.0    63   96.9     2    269.5     6.0    999.0   0.00
 262    3:00    0.0    63   96.5     2    280.3     5.5    999.0   0.00
 262    3:10    0.0    64   96.3     2    267.5     5.5    999.0   0.00
 262    3:20    0.0    64   96.6     2    285.3     6.6    999.0   0.00
 262    3:30    0.0    64   96.8     1    285.3     4.4    999.0   0.00
 262    3:40    0.0    63   96.6     2    285.3     6.6    999.0   0.00
 262    3:50    0.0    63   95.7     3    268.3     7.7    999.0   0.00
 262    4:00    0.0    63   94.4     3    278.4     6.6    999.0   0.00
 262    4:10    0.0    63   93.7     1    328.7     3.8    999.0   0.00
 262    4:20    0.0    64   93.3     0    293.2     1.6    999.0   0.00
 262    4:30    0.0    64   93.1     2    285.8     4.4    999.0   0.00
 262    4:40    0.0    64   92.8     1    266.8     4.4    999.0   0.00
 262    4:50    0.0    64   92.5     1    300.1     3.8    999.0   0.00
 262    5:00    0.0    64   92.2     1    335.2     3.8    999.0   0.00
 262    5:10    0.0    64   92.1     1    321.5     3.8    999.0   0.00
 262    5:20    0.0    64   92.0     1    285.3     3.8    999.0   0.00
 262    5:30    0.0    64   91.9     1    275.3     3.8    999.0   0.00
 262    5:40    0.0    64   91.7     0    316.8     1.6    999.0   0.00
 262    5:50    0.0    64   91.5     0      0.0     0.0    999.0   0.00
 262    6:00    0.0    64   91.3     0      0.0     0.0    999.0   0.00
 262    6:10    0.0    64   91.4     0    291.1     1.6    999.0   0.00
 262    6:20    0.0    64   91.4     0      0.0     0.0    999.0   0.00
 262    6:30    0.2    64   91.5     0    274.3     1.6    999.0   0.00
 262    6:40    1.0    64   91.5     0    274.2     1.0    999.0   0.00
 262    6:50    2.8    64   91.6     1    251.7     3.2    999.0   0.00
 262    7:00    6.0    64   91.5     1    282.5     3.2    999.0   0.00
 262    7:10   11.9    64   90.6     2    251.7     4.4    999.0   0.00
 262    7:20   19.4    64   89.5     2    239.9     4.4    999.0   0.00
 262    7:30   27.3    65   88.6     1    266.4     4.4    999.0   0.00
 262    7:40   34.1    65   87.7     2    288.4     4.9    999.0   0.00
 262    7:50   46.4    66   87.0     0    232.4     3.2    999.0   0.00
 262    8:00   50.7    66   86.3     2    295.6     3.8    999.0   0.00
 262    8:10   58.3    66   86.0     2    292.3     4.9    999.0   0.00
 262    8:20   74.6    66   85.7     2    295.4     6.6    999.0   0.00

Return to Hayfield, Middle Canyon graphs page.


Western Regional Climate Center,wrcc@dri.edu